Location: River House Observatory
(37.8577°N, 76.3548°W)
Time: 23:06:57
(UTC-04:00)

Daily predictions for brighter satellites

Satellite Brightness Start Highest point End
(mag) Time Altitude Azimuth Time Altitude Azimuth Time Altitude Azimuth
COSMOS 2428 3.8 18:39:21 10° N 18:43:50 23° NE 18:48:18 10° ESE
CSL-04 Rocket 4.3 18:39:41 10° S 18:45:00 63° WSW 18:50:16 10° NNW
Cosmos 2322 Rocket 2.9 18:40:32 10° NNW 18:46:03 61° WSW 18:51:34 10° S
Cosmos 2333 Rocket 3.9 18:43:43 10° NNE 18:46:33 14° NE 18:49:21 10° E
Cosmos 1833 4.2 18:41:09 10° SSW 18:46:50 83° ESE 18:52:30 10° NNE
IRS-1A Rocket 4.4 18:42:30 10° SSE 18:48:19 78° ENE 18:54:15 10° N
Cosmos 2219 4.1 18:44:12 10° SSE 18:48:58 28° ESE 18:53:45 10° NE
CZ-4C R/B 2.9 18:44:58 10° S 18:49:20 30° ESE 18:54:08 10° NE
Cosmos 1500 Rocket 3.6 18:50:20 10° N 18:54:36 56° E 18:58:49 10° SSE
Cosmos 2056 Rocket 4.2 18:50:13 10° NNW 18:55:26 61° WSW 19:00:32 10° S
Abrixas 2.8 18:54:38 10° SSW 18:56:34 28° SE 18:58:09 13° E
CORIOLIS 4.4 18:51:50 10° S 18:57:12 77° WSW 19:02:39 10° NNW
FENGYUN 3A 4.3 18:53:03 10° SE 18:57:48 33° ENE 19:02:35 10° N
SPOT 3 Rocket 3.7 18:57:53 10° SSE 19:02:53 52° ENE 19:07:57 10° N
BREEZE-M R/B 4.0 19:06:43 10° SSE 19:08:17 15° SE 19:09:00 14° ESE
Cosmos 2366 rocket 4.5 19:03:36 10° SSW 19:09:46 66° W 19:15:56 10° N
EO 1 Del DPAF 3.4 19:07:01 10° N 19:10:51 76° WNW 19:14:41 10° SSW
Cosmos 2322 3.7 19:06:48 10° NNW 19:12:32 71° ENE 19:18:12 10° SSE
Cosmos 1452 Rocket 3.4 19:07:47 10° NNW 19:13:03 75° ENE 19:18:17 10° SSE
Meteor 2-1 Rocket 4.4 19:08:16 10° S 19:14:02 87° W 19:19:59 10° N
Cosmos 1315 Rocket 2.8 19:10:03 10° N 19:14:06 61° E 19:18:10 10° SSE
ERS-2 3.4 19:11:17 10° S 19:14:49 44° W 19:18:24 10° NNW
Cosmos 2098 Rocket 3.7 19:13:31 10° SSE 19:17:38 41° E 19:22:48 10° NNE
Aureole 2 Rocket 4.0 19:16:30 10° NNE 19:19:34 21° ENE 19:20:31 19° E
COSMO-SKYMED 1 2.7 19:15:35 10° N 19:19:55 80° WNW 19:24:15 10° SSW
Sich 1 4.2 19:18:19 10° NNE 19:21:48 23° ENE 19:23:42 17° ESE
ASTRO E2 4.1 19:18:55 10° WSW 19:22:25 29° S 19:25:19 13° SE
ALOS 2.3 19:19:12 10° SSE 19:23:45 56° ENE 19:28:20 10° N
Cosmos 2219 Rocket 3.0 19:20:15 10° N 19:25:09 30° ENE 19:28:19 18° ESE
Cosmos 1726 2.4 19:22:54 10° SSE 19:26:24 41° E 19:29:53 10° NNE
Iridium 4 Rocket 3.7 19:22:18 10° SSE 19:27:44 62° E 19:33:30 10° N
Cosmos 1805 Rocket 3.8 19:29:08 10° N 19:33:23 47° E 19:37:37 10° SSE
SJ-6B 4.1 19:35:42 22° NE 19:35:42 22° NE 19:37:46 10° NNE
SL-24 R/B - RUBIN 2 4.3 19:32:53 10° NW 19:37:32 57° WSW 19:41:47 10° SSE
RESURS DK-1 3.6 19:35:44 10° NW 19:39:40 43° WSW 19:43:34 10° S
NOAA 12 4.1 19:34:38 10° SSE 19:39:56 89° ENE 19:45:17 10° NNW
YAOGAN 1 4.4 19:36:46 10° SSW 19:40:39 33° W 19:44:35 10° NNW
Cosmos 1666 Rocket 4.0 19:38:24 10° N 19:42:26 36° ENE 19:43:27 32° ESE
BREEZE-M DEB (TANK) 4.4 19:25:34 10° WNW 19:45:11 49° N 19:48:19 26° ENE
Cosmos 1821 Rocket 3.9 19:39:57 10° S 19:46:04 78° E 19:52:19 10° N
DELTA 2 R/B (1) 3.7 19:41:28 10° WNW 19:47:02 72° SSW 19:50:05 27° ESE
SAR-Lupe-3 4.4 19:43:36 10° NNE 19:47:12 88° ESE 19:50:46 10° SSW
Cosmos 1000 Rocket 4.4 19:41:16 10° N 19:47:31 82° E 19:53:41 10° S
Cosmos 1934 Rocket 4.0 19:41:48 10° S 19:48:01 61° E 19:54:18 10° NNE
Cosmos 1048 Rocket 4.2 19:43:12 10° SSW 19:48:18 71° WNW 19:53:26 10° NNE
Cosmos 2333 4.1 19:42:36 10° NNW 19:48:20 73° ENE 19:54:05 10° SSE
Atlas Centaur 2 3.4 19:44:43 10° WSW 19:48:35 26° S 19:51:47 16° SE
Cosmos 1633 Rocket 3.6 19:44:53 10° N 19:48:39 35° ENE 19:48:39 35° ENE
BREEZE-M DEB (TANK) 4.4 19:46:55 10° NW 19:51:57 75° NE 20:11:28 14° ESE
Gbstr 26 Del rocket 3.9 19:47:06 10° NW 19:52:08 51° NE 19:54:24 34° E
Cosmos 2239 Rocket 4.4 19:46:34 10° S 19:52:41 88° E 19:58:51 10° N
Cosmos 44 4.0 19:51:58 10° SW 19:56:10 46° NW 20:00:11 11° NNE
H-2A R/B 2.7 19:55:43 42° SE 19:56:51 63° ENE 20:00:44 10° N
In-Cosmos 22 Rocket 4.4 19:53:24 10° N 19:58:57 47° ENE 20:01:27 30° SE
Cosmos 2237 Rocket 3.0 19:54:21 10° N 19:59:14 31° NE 19:59:14 31° NE
Cosmos 2227 Rocket 2.4 19:59:30 10° S 20:04:48 43° ESE 20:04:49 43° ESE
Thor Agena Rocket 3.6 20:01:40 10° N 20:06:45 76° WNW 20:11:46 10° SSW
BREEZE-M DEB (TANK) 3.9 20:06:23 10° WNW 20:07:22 16° NNW 20:07:22 16° NNW
SL-16 R/B 4.1 20:06:43 10° NNE 20:08:15 14° NNE 20:08:15 14° NNE
Cosmos 2221 4.4 20:07:46 10° SW 20:11:35 30° WNW 20:15:27 10° NNW
Delta 2 Rocket 3.6 20:08:04 10° W 20:11:17 48° SW 20:11:17 48° SW
Cosmos 1300 3.1 20:13:51 10° SSW 20:17:37 62° W 20:20:01 21° N
Cosmos 2123 Rocket 3.9 20:11:50 10° N 20:18:06 81° E 20:24:23 10° S
Cosmos 1605 Rocket 3.8 20:14:20 10° S 20:20:26 75° E 20:26:31 10° N
Cosmos 1980 3.9 20:17:53 10° NNW 20:22:47 50° NE 20:22:47 50° NE
Cosmos 1331 Rocket 4.2 20:21:21 10° NNW 20:25:41 54° NNE 20:25:41 54° NNE
OAO 1 Rocket 4.5 20:22:15 10° W 20:27:30 65° S 20:27:39 64° S
COSMOS 2428 3.6 20:22:53 10° NW 20:28:20 48° WSW 20:33:45 10° S
USA 267 3.1 20:28:50 54° ENE 20:30:18 70° SE 20:36:48 10° SW
Hubble Space Telescope 3.3 20:28:28 10° SSW 20:29:13 13° SSW 20:29:13 13° SSW
Cosmos 2333 Rocket 2.1 20:25:50 10° NNW 20:31:37 89° ENE 20:32:29 66° SSE
Meteor 2-2 Rocket 4.3 20:31:20 10° SSW 20:37:02 75° W 20:42:42 10° N
CZ-4C R/B 3.5 20:32:48 10° WSW 20:37:37 36° NW 20:41:54 15° NNE
Cosmos 2297 Rocket 3.1 20:36:42 10° SSW 20:39:56 36° S 20:39:56 36° S
Resurs 01 Rocket 4.0 20:47:33 14° N 20:47:33 14° N 20:48:14 10° N
NOSS 0 Rocket 4.0 20:48:13 10° NNW 20:54:20 70° WSW 20:54:41 68° SW
USA 234 4.5 21:05:13 28° N 21:05:13 28° N 21:09:37 10° NNW
Cosmos 2219 Rocket 3.5 21:04:03 10° NW 21:09:04 35° WSW 21:10:07 32° SW
Cosmos 2237 Rocket 4.1 21:38:19 10° NW 21:41:05 25° WNW 21:41:05 25° WNW
Cosmos 2227 Rocket 4.4 21:44:21 10° WSW 21:46:46 20° W 21:46:46 20° W
